Simultaneous Nadir Overpasses (SNOs) Predictions

Prediction of SNOs between AQUA and METOP-B Satellite Orbit:

Table of predicted SNOs for the next 14.0 days since TLE Epoch: 7/3/2021
Index Date (AQUA) Time (AQUA) Lat,Lon (AQUA) SZA (AQUA ) Date (METOP-B) Time (METOP-B) Lat,Lon (METOP-B) SZA (METOP-B ) Distance(km) Time Diff (sec)
1 07/04/2021 04:16:57 -73.74, -69.86 129.08 07/04/2021 04:15:59 -73.75, -69.81 129.06 2.02 58
2 07/04/2021 05:06:26 73.81, 97.62 51.01 07/04/2021 05:06:37 73.83, 97.70 51.02 2.93 11
3 07/04/2021 05:56:01 -74.30, -95.85 128.46 07/04/2021 05:57:09 -74.32, -93.74 128.53 63.55 68
4 07/06/2021 23:51:14 -73.76, -3.47 128.78 07/06/2021 23:50:22 -73.77, -3.36 128.76 3.60 52
5 07/07/2021 00:40:42 73.78, 164.12 51.25 07/07/2021 00:41:01 73.80, 164.03 51.27 3.32 19
6 07/09/2021 19:25:30 -73.73, 63.02 128.47 07/09/2021 19:24:46 -73.74, 62.97 128.46 1.79 44
7 07/09/2021 20:14:59 73.81,-129.50 51.61 07/09/2021 20:15:24 73.81,-129.53 51.62 0.72 25
8 07/12/2021 14:59:46 -73.77, 129.39 128.06 07/12/2021 14:59:08 -73.75, 129.41 128.06 1.64 38
9 07/12/2021 15:49:15 73.84, -63.15 52.03 07/12/2021 15:49:46 73.82, -63.08 52.01 2.73 31
10 07/15/2021 10:34:02 -73.75,-164.15 127.64 07/15/2021 10:33:31 -73.76,-164.16 127.62 1.24 31
11 07/15/2021 11:23:31 73.83, 3.31 52.45 07/15/2021 11:24:09 73.84, 3.35 52.45 1.32 38



Historial Predications of SNOs between AQUA and METOP-B
